[[{"header":{"parameterUnit":"m.s-1","parameterCategory":1,"la1":30.2991,"la2":30.254,"lo1":-89.0895,"lo2":-89.0444,"dy":0.0017,"dx":0.0017,"nx":28,"ny":28,"refTime":"2024-02-29T03:00:00:Z","depth":0,"parameterNumber":2,"parameterNumberName":"U-component_of_WINDS"},"data":[0,0,0,0,0,0,0,0,0,0,0,0,0,0,0,0,0,0,0,0,0,0,0,0,0,0,0,0,0,0,0,0,0,0,0,0,0,0,0,0,0,0,0,0,0,0,0,0,0,0,0,0,0,0,0,0,0,0,-1.0828,-1.0825,0,-1.0573,-1.057,-1.0568,-1.0501,-1.0502,-1.0504,-1.0505,-1.0235,-1.0227,-1.0218,0,0,0,0,0,0,0,0,0,0,0,0,0,-1.1241,-1.1234,-1.0828,-1.0825,-1.0822,-1.0574,-1.057,-1.0567,-1.05,-1.0502,-1.0504,-1.0506,-1.0238,-1.0228,-1.0218,0,0,0,0,0,0,0,0,0,0,0,0,0,-1.1032,-1.1232,-1.0829,-1.0759,-1.075,-1.0575,-1.057,-1.0566,-1.05,-1.0502,-1.0505,-1.0507,-1.0242,-1.0229,-1.0216,-1.0089,0,0,-1.0177,-1.0171,0,0,0,0,0,0,0,0,-1.1044,-1.1016,-1.0772,-1.0764,-1.0753,-1.0571,-1.0617,-1.0406,-1.0499,-1.0595,-1.0505,-1.0508,-1.0345,-1.0323,-1.027,-1.0076,-1.0065,-1.0175,-1.0168,-1.0162,-1.0158,0,0,0,0,0,0,0,-1.1058,-1.1027,-1.0727,-1.0769,-1.0757,-1.0735,-1.0708,-1.0576,-1.0459,-1.0587,-1.0581,-1.0552,-1.034,-1.0283,-1.0263,-1.0061,-1.0176,-1.0164,-1.0156,-1.0151,-0.9736,-0.9733,0,0,0,0,0,0,-1.1086,-1.104,-1.0735,-1.072,-1.0908,-1.0726,-1.0695,-1.0627,-1.0461,-1.0438,-1.0551,-1.055,-1.0304,-1.0279,-1.0254,-1.0085,-1.0162,-1.015,-1.0143,-0.9739,-0.9735,-0.9732,0,0,0,0,0,0,-1.1096,-1.106,-1.0746,-1.0878,-1.0836,-1.0716,-1.064,-1.0621,-1.0564,-1.0434,-1.0411,-1.0515,-1.0305,-1.0272,-1.0128,-1.0075,-1.0144,-1.0132,-0.9743,-0.9738,-0.9734,-0.9753,0,0,0,0,0,0,-1.1108,-1.1064,-1.1019,-1.0878,-1.0829,-1.063,-1.0637,-1.0614,-1.0543,-1.054,-1.0394,-1.0372,-1.0304,-1.0148,-1.0115,-1.0058,-1.0122,-0.9747,-0.9741,-0.9735,-0.9756,-0.9749,-0.9743,0,0,0,0,0,-1.1123,-1.1035,-1.1017,-1.0981,-1.0771,-1.0627,-1.0599,-1.0525,-1.0539,-1.0489,-1.0403,-1.0377,-1.0087,-1.0134,-1.0096,-1.0035,-0.975,-0.9743,-0.9736,-0.9759,-0.975,-0.9743,0,0,0,0,0,0,-1.1173,-1.1016,-1.0994,-1.0859,-1.0757,-1.0616,-1.0552,-1.052,-1.041,-1.0411,-1.0321,-1.0288,-1.0148,-1.0078,-1.0133,-0.9896,-0.9917,-0.9902,-0.9948,-0.9939,-0.9932,-0.995,-1.0111,0,0,0,0,0,-1.1168,-1.1069,-1.0935,-1.0828,-1.0778,-1.0673,-1.0608,-1.0559,-1.0448,-1.0404,-1.0309,-1.0199,-1.0081,-1.0007,-0.9893,-0.9746,-0.9707,-0.9684,-0.9677,-0.9673,-0.9659,-0.9564,-0.955,-0.9708,-0.9708,-0.9708,0,0,-1.1158,-1.1059,-1.1002,-1.0835,-1.0751,-1.0642,-1.0638,-1.0527,-1.0443,-1.0387,-1.0243,-1.0169,-1.0039,-0.9891,-0.982,-0.9827,-0.9606,-0.9663,-0.9661,-0.9649,-0.9555,-0.954,-0.9527,-0.9703,-0.9704,-0.9705,0,0,-1.1082,-1.1002,-1.0899,-1.0813,-1.0684,-1.0613,-1.0588,-1.045,-1.0398,-1.0253,-1.0205,-1.0102,-0.9906,-0.9812,-0.9739,-0.9616,-0.9584,-0.9582,-0.9546,-0.9455,-0.9442,-0.943,-0.9378,-0.9361,-0.957,-0.957,-0.957,0,-1.1085,-1.0925,-1.085,-1.0738,-1.0661,-1.0605,-1.0495,-1.0414,-1.0254,-1.0199,-1.021,-0.9954,-0.9864,-0.9687,-0.9656,-0.9602,-0.9563,-0.9597,-0.9451,-0.9438,-0.9426,-0.9374,-0.9356,-0.957,-0.957,-0.957,-0.957,0,-1.0929,-1.0818,-1.0749,-1.0595,-1.0511,-1.0401,-1.0303,-1.0226,-1.0181,-1.0107,-0.9954,-0.9843,-0.97,-0.9655,-0.9613,-0.9468,-0.9475,-0.947,-0.9488,-0.9412,-0.9362,-0.9342,-0.957,-0.957,-0.957,-0.957,0,0,-1.0883,-1.0682,-1.0658,-1.0582,-1.0431,-1.034,-1.0223,-1.0084,-1.0015,-0.9904,-0.9798,-0.9628,-0.9618,-0.9535,-0.9479,-0.94,-0.9297,-0.9402,-0.9397,-0.938,-0.912,-0.9121,-0.91,-0.9276,-0.9272,-0.9269,-0.9128,0,-1.0783,-1.0576,-1.05,-1.0326,-1.0216,-1.0156,-1.0052,-0.9944,-0.9869,-0.976,-0.9676,-0.9553,-0.9555,-0.9502,-0.9422,-0.9328,-0.9243,-0.9338,-0.9168,-0.9163,-0.9197,-0.9076,-0.9079,-0.8951,-0.9109,-0.9105,-0.9103,0,-1.0642,-1.0526,-1.0342,-1.0195,-1.0145,-1.0055,-0.9915,-0.9814,-0.9686,-0.9636,-0.9538,-0.9486,-0.9352,-0.938,-0.9188,-0.9254,-0.9179,-0.9121,-0.9114,-0.9091,-0.9126,-0.9043,-0.891,-0.8888,-0.9073,-0.9075,-0.9078,0,-1.0616,-1.0416,-1.0276,-1.0215,-1.0042,-0.9976,-0.99,-0.9775,-0.9693,-0.9569,-0.9512,-0.9375,-0.9298,-0.9189,-0.9097,-0.9128,-0.891,-0.8934,-0.8857,-0.8859,-0.8812,-0.8815,-0.8659,-0.8774,-0.8774,-0.8775,-0.8775,0,-1.0511,-1.0399,-1.0261,-1.0176,-1.0044,-0.9954,-0.9824,-0.9743,-0.963,-0.9521,-0.9461,-0.9359,-0.9246,-0.9127,-0.9054,-0.89,-0.8868,-0.8817,-0.8798,-0.8819,-0.8825,-0.8766,-0.877,-0.877,-0.8771,-0.8772,-0.8773,0,-1.0461,-1.0367,-1.0209,-1.0055,-1.0013,-0.9922,-0.9787,-0.9697,-0.9617,-0.9479,-0.9441,-0.9313,-0.9168,-0.9066,-0.8881,-0.8831,-0.8662,-0.8648,-0.8706,-0.8695,-0.8622,-0.8627,-0.8417,-0.838,-0.8528,-0.8526,-0.8525,0,-1.0399,-1.031,-1.0145,-1.0068,-0.9992,-0.9871,-0.9784,-0.9689,-0.96,-0.9441,-0.9367,-0.9218,-0.9094,-0.8864,-0.8751,-0.8605,-0.8582,-0.8518,-0.8559,-0.8579,-0.857,-0.8574,-0.856,-0.8511,-0.851,-0.8509,-0.8508,0,-1.0295,-1.0249,-1.013,-0.999,-0.9889,-0.9774,-0.9658,-0.9598,-0.9479,-0.9382,-0.9233,-0.9136,-0.8943,-0.8792,-0.8634,-0.8548,-0.8503,-0.8495,-0.8468,-0.8487,-0.8521,-0.8492,-0.8681,-0.85,-0.8501,-0.8502,-0.8502,-0.8502,-1.0231,-1.0145,-1.0013,-0.9878,-0.978,-0.967,-0.9574,-0.948,-0.9355,-0.9191,-0.9141,-0.8983,-0.8845,-0.8627,-0.8538,-0.8408,-0.8412,-0.8376,-0.8365,-0.8356,-0.8351,-0.8546,-0.838,-0.838,-0.838,-0.838,-0.838,0,-1.0117,-1.0027,-0.9904,-0.9742,-0.9632,-0.9603,-0.947,-0.9379,-0.9242,-0.9118,-0.8995,-0.8817,-0.8667,-0.854,-0.8383,-0.8302,-0.8277,-0.8263,-0.8265,-0.8243,-0.8362,-0.8397,-0.8285,-0.8285,-0.8285,-0.8285,-0.8285,-0.8285,-1.0045,-0.9895,-0.9832,-0.9627,-0.9536,-0.9383,-0.9308,-0.9202,-0.9101,-0.8906,-0.8782,-0.87,-0.857,-0.8401,-0.8258,-0.8224,-0.8165,-0.8154,-0.8114,-0.8226,-0.8237,-0.8247,-0.8279,-0.8144,-0.8144,-0.8005,-0.8004,-0.8003]},{"header":{"parameterUnit":"m.s-1","parameterCategory":1,"la1":30.2991,"la2":30.254,"lo1":-89.0895,"lo2":-89.0444,"dy":0.0017,"dx":0.0017,"nx":28,"ny":28,"refTime":"2024-02-29T03:00:00:Z","depth":0,"parameterNumber":3,"parameterNumberName":"V-component_of_WINDS"},"data":[0,0,0,0,0,0,0,0,0,0,0,0,0,0,0,0,0,0,0,0,0,0,0,0,0,0,0,0,0,0,0,0,0,0,0,0,0,0,0,0,0,0,0,0,0,0,0,0,0,0,0,0,0,0,0,0,0,0,-9.6292,-9.629,0,-9.6125,-9.6123,-9.6121,-9.6021,-9.602,-9.602,-9.6019,-9.5839,-9.5835,-9.5831,0,0,0,0,0,0,0,0,0,0,0,0,0,-9.6508,-9.6505,-9.6292,-9.629,-9.6288,-9.6125,-9.6123,-9.612,-9.6021,-9.602,-9.602,-9.6019,-9.5841,-9.5836,-9.583,0,0,0,0,0,0,0,0,0,0,0,0,0,-9.6385,-9.6503,-9.6292,-9.6218,-9.621,-9.6126,-9.6123,-9.612,-9.6021,-9.602,-9.602,-9.6019,-9.5843,-9.5836,-9.583,-9.5803,0,0,-9.581,-9.5807,0,0,0,0,0,0,0,0,-9.6392,-9.6377,-9.6231,-9.6223,-9.6214,-9.6093,-9.6133,-9.6013,-9.6021,-9.6092,-9.6019,-9.6019,-9.5924,-9.591,-9.588,-9.5794,-9.5786,-9.5809,-9.5805,-9.5802,-9.58,0,0,0,0,0,0,0,-9.6401,-9.6383,-9.6225,-9.6229,-9.6219,-9.6188,-9.617,-9.611,-9.6014,-9.6086,-9.6079,-9.6061,-9.5919,-9.5887,-9.5875,-9.5784,-9.5809,-9.5803,-9.5799,-9.5797,-9.5652,-9.5652,0,0,0,0,0,0,-9.6423,-9.6391,-9.6231,-9.622,-9.6303,-9.6185,-9.6165,-9.6132,-9.6014,-9.5996,-9.6061,-9.6057,-9.5898,-9.5883,-9.5869,-9.582,-9.5802,-9.5796,-9.5792,-9.5652,-9.5652,-9.5652,0,0,0,0,0,0,-9.6428,-9.6409,-9.6237,-9.6304,-9.6279,-9.6182,-9.6147,-9.6129,-9.6098,-9.5995,-9.5976,-9.6048,-9.5897,-9.5878,-9.5817,-9.5813,-9.5793,-9.5787,-9.5652,-9.5652,-9.5652,-9.5729,0,0,0,0,0,0,-9.6434,-9.6412,-9.6405,-9.6304,-9.6276,-9.6195,-9.6147,-9.6127,-9.6088,-9.608,-9.5977,-9.596,-9.5895,-9.5828,-9.5811,-9.5804,-9.5782,-9.5651,-9.5652,-9.5652,-9.5727,-9.5732,-9.5737,0,0,0,0,0,-9.6442,-9.6434,-9.6406,-9.6387,-9.6267,-9.6195,-9.6178,-9.6107,-9.6088,-9.6077,-9.6009,-9.5963,-9.5816,-9.5822,-9.5802,-9.5793,-9.5651,-9.5652,-9.5652,-9.5725,-9.5731,-9.5737,0,0,0,0,0,0,-9.6537,-9.642,-9.6387,-9.6347,-9.6281,-9.6178,-9.6163,-9.6118,-9.6055,-9.605,-9.5961,-9.5938,-9.5883,-9.5832,-9.5841,-9.5753,-9.5728,-9.5724,-9.579,-9.5795,-9.58,-9.5812,-9.5777,0,0,0,0,0,-9.6553,-9.6509,-9.6408,-9.6381,-9.635,-9.6262,-9.6229,-9.6178,-9.6106,-9.6077,-9.6006,-9.5933,-9.5869,-9.5829,-9.5766,-9.5718,-9.5688,-9.5701,-9.5706,-9.571,-9.5707,-9.5666,-9.5667,-9.5652,-9.5652,-9.5652,0,0,-9.6586,-9.6516,-9.6494,-9.6398,-9.6342,-9.6291,-9.624,-9.6192,-9.6151,-9.6069,-9.6006,-9.595,-9.5862,-9.5805,-9.5776,-9.576,-9.5704,-9.5711,-9.5715,-9.5709,-9.5666,-9.5668,-9.5669,-9.5653,-9.5653,-9.5653,0,0,-9.6619,-9.6566,-9.6534,-9.6477,-9.6392,-9.6332,-9.6324,-9.6225,-9.6184,-9.612,-9.6054,-9.6001,-9.5897,-9.5833,-9.5788,-9.5785,-9.5736,-9.5767,-9.5792,-9.5753,-9.5754,-9.5754,-9.5745,-9.5744,-9.5764,-9.5764,-9.5764,0,-9.667,-9.6597,-9.6523,-9.6475,-9.6431,-9.6354,-9.6316,-9.6263,-9.616,-9.6128,-9.6112,-9.5971,-9.5908,-9.5829,-9.5827,-9.5796,-9.5776,-9.5778,-9.5761,-9.576,-9.576,-9.5749,-9.5747,-9.5768,-9.5768,-9.5767,-9.5767,0,-9.6659,-9.6608,-9.6591,-9.6494,-9.6448,-9.6406,-9.6318,-9.6279,-9.623,-9.6169,-9.6097,-9.6016,-9.593,-9.5908,-9.5861,-9.5818,-9.581,-9.5779,-9.5751,-9.5766,-9.5754,-9.5751,-9.5774,-9.5772,-9.5771,-9.577,0,0,-9.6751,-9.6608,-9.6603,-9.6553,-9.6449,-9.6405,-9.6354,-9.6272,-9.6235,-9.6164,-9.6113,-9.6021,-9.5988,-9.5935,-9.5879,-9.5845,-9.5836,-9.5816,-9.5812,-9.5816,-9.5772,-9.5793,-9.5791,-9.5803,-9.5802,-9.5801,-9.5777,0,-9.6765,-9.6676,-9.6603,-9.6538,-9.6484,-9.6405,-9.6359,-9.6285,-9.6224,-9.6164,-9.6094,-9.6027,-9.5993,-9.5959,-9.5922,-9.5846,-9.5825,-9.5846,-9.5747,-9.5744,-9.5769,-9.5787,-9.5812,-9.5793,-9.5773,-9.5772,-9.5772,0,-9.6771,-9.6702,-9.6633,-9.6525,-9.6499,-9.6461,-9.6373,-9.6319,-9.6229,-9.6186,-9.6123,-9.6062,-9.5995,-9.5973,-9.5873,-9.5889,-9.5842,-9.5796,-9.5793,-9.5779,-9.5758,-9.5767,-9.5787,-9.5782,-9.5765,-9.5766,-9.5766,0,-9.6837,-9.6727,-9.6668,-9.6629,-9.6504,-9.6477,-9.6422,-9.6333,-9.6284,-9.6204,-9.6169,-9.6083,-9.6034,-9.5964,-9.5877,-9.5871,-9.5782,-9.5756,-9.5736,-9.5738,-9.5721,-9.5723,-9.5729,-9.5699,-9.5699,-9.5699,-9.5699,0,-9.6858,-9.6816,-9.6695,-9.6659,-9.6606,-9.6519,-9.6466,-9.6404,-9.6323,-9.6266,-9.6191,-9.6138,-9.6029,-9.5959,-9.589,-9.5811,-9.5792,-9.5748,-9.5729,-9.5753,-9.5757,-9.5719,-9.5717,-9.5698,-9.5698,-9.5698,-9.5698,0,-9.6923,-9.6842,-9.6771,-9.6657,-9.6626,-9.6592,-9.6489,-9.6446,-9.6378,-9.6306,-9.6284,-9.6175,-9.6088,-9.5994,-9.5876,-9.5828,-9.5751,-9.5728,-9.5783,-9.5771,-9.5755,-9.5756,-9.5734,-9.5722,-9.5705,-9.5706,-9.5706,0,-9.694,-9.6906,-9.6787,-9.6745,-9.6693,-9.6628,-9.6576,-9.6485,-9.6433,-9.6322,-9.629,-9.6198,-9.612,-9.5982,-9.5887,-9.5792,-9.5762,-9.576,-9.5748,-9.5768,-9.5753,-9.5755,-9.5746,-9.5765,-9.5765,-9.5766,-9.5766,0,-9.6977,-9.6936,-9.6869,-9.6784,-9.6725,-9.6653,-9.6578,-9.6546,-9.6437,-9.6381,-9.6292,-9.6231,-9.6107,-9.6013,-9.5905,-9.5839,-9.578,-9.5771,-9.576,-9.5782,-9.5813,-9.5788,-9.5789,-9.5772,-9.5771,-9.5771,-9.5771,-9.577,-9.7014,-9.6976,-9.6885,-9.6809,-9.6742,-9.6671,-9.6622,-9.6546,-9.6473,-9.6368,-9.6316,-9.6225,-9.6122,-9.5972,-9.5906,-9.5827,-9.581,-9.5797,-9.5792,-9.5789,-9.5791,-9.5828,-9.5807,-9.5807,-9.5806,-9.5806,-9.5806,0,-9.7041,-9.6977,-9.6908,-9.6804,-9.6741,-9.6696,-9.6606,-9.6554,-9.6477,-9.639,-9.6313,-9.6204,-9.6109,-9.6004,-9.59,-9.5855,-9.5825,-9.583,-9.5831,-9.5814,-9.5817,-9.5833,-9.5856,-9.5856,-9.5856,-9.5856,-9.5856,-9.5856,-9.7048,-9.6979,-9.6926,-9.6819,-9.6753,-9.6667,-9.6619,-9.6548,-9.6477,-9.6361,-9.6283,-9.6216,-9.6117,-9.6003,-9.591,-9.588,-9.5842,-9.5854,-9.5816,-9.582,-9.5816,-9.5812,-9.5827,-9.5848,-9.5848,-9.5819,-9.5819,-9.5819]}]]